FW2439 Weather Reports


time (UTC)temp
F
wind
direction
speed
knots
gust
knots
rain 1hr
in
rain 24hr
in
rain mn
in
humidity
%
barometer
mb
20260901224510 96 265 0.0 0.9 0.00 0.00 0.00 55 1016.1
20260901223007 98 248 0.0 1.7 0.00 0.00 0.00 51 1016.0
20260901221509 97 231 0.0 2.6 0.00 0.00 0.00 52 1016.1
20260901220105 97 242 0.0 0.9 0.00 0.00 0.00 55 1016.1
20260901214504 97 236 0.0 1.7 0.00 0.00 0.00 55 1016.1
20260901213002 96 259 0.0 0.9 0.00 0.00 0.00 60 1016.2
20260901211502 97 319 0.9 2.6 0.00 0.00 0.00 53 1016.2
20260901210129 97 265 0.0 5.2 0.00 0.00 0.00 56 1016.4
20260901204559 96 225 0.0 2.6 0.00 0.00 0.00 56 1016.4
20260901203058 97 239 0.0 2.6 0.00 0.00 0.00 55 1016.4
20260901201555 97 247 0.0 2.6 0.00 0.00 0.00 57 1016.6
20260901200056 97 264 0.0 2.6 0.00 0.00 0.00 54 1016.9
20260901194602 97 228 0.9 2.6 0.00 0.00 0.00 54 1017.0
20260901193050 96 231 0.9 2.6 0.00 0.00 0.00 53 1017.2
20260901191555 95 229 1.7 3.5 0.00 0.00 0.00 53 1017.4
20260901190111 96 305 0.9 4.3 0.00 0.00 0.00 51 1017.6
20260901184542 96 288 0.9 2.6 0.00 0.00 0.00 54 1017.8
20260901183040 95 270 0.0 2.6 0.00 0.00 0.00 58 1018.0
20260901181542 95 236 0.9 2.6 0.00 0.00 0.00 58 1018.3
20260901180039 94 299 1.7 4.3 0.00 0.00 0.00 58 1018.3
20260901174545 94 316 0.9 4.3 0.00 0.00 0.00 60 1018.6
20260901173036 93 282 0.9 4.3 0.00 0.00 0.00 62 1018.7
20260901171535 93 77 1.7 4.3 0.00 0.00 0.00 61 1019.0
20260901170034 94 341 0.9 4.3 0.00 0.00 0.00 62 1019.1
20260901164538 93 249 0.9 3.5 0.00 0.00 0.00 61 1019.3
20260901163059 94 229 0.9 4.3 0.00 0.00 0.00 61 1019.5
20260901161531 93 251 0.0 3.5 0.00 0.00 0.00 61 1019.6
20260901160030 94 223 0.9 3.5 0.00 0.00 0.00 62 1019.6
20260901154545 94 224 0.9 3.5 0.00 0.00 0.00 62 1019.5
20260901153037 93 274 0.0 2.6 0.00 0.00 0.00 65 1019.6
20260901151526 93 231 0.0 0.9 0.00 0.00 0.00 65 1019.7
20260901150022 92 228 0.9 1.7 0.00 0.00 0.00 68 1019.5
20260901144521 90 222 0.0 0.9 0.00 0.00 0.00 72 1019.5
20260901143015 87 214 0.0 0.9 0.00 0.00 0.00 77 1019.6
20260901141514 85 221 0.9 2.6 0.00 0.00 0.00 79 1019.7
20260901140006 81 225 0.0 1.7 0.00 0.00 0.00 87 1019.7
20260901134501 79 228 0.0 0.0 0.00 0.00 0.00 93 1019.7
20260901133106 76 237 0.0 0.9 0.00 0.00 0.00 96 1019.7
20260901131554 75 237 0.0 0.9 0.00 0.00 0.00 98 1019.8
20260901130048 73 237 0.0 0.0 0.00 0.00 0.00 100 1019.8
20260901124547 73 237 0.0 0.0 0.00 0.00 0.00 100 1019.7
20260901123045 72 237 0.0 0.0 0.00 0.00 0.00 100 1019.5
20260901121550 71 237 0.0 0.0 0.00 0.00 0.00 99 1019.4
20260901120042 71 237 0.0 0.0 0.00 0.00 0.00 99 1019.3
20260901114543 71 237 0.0 0.0 0.00 0.00 0.00 99 1019.2
20260901113041 71 237 0.0 0.0 0.00 0.00 0.00 99 1019.0
20260901111537 71 237 0.0 0.0 0.00 0.00 0.00 99 1018.9
20260901110044 71 237 0.0 0.0 0.00 0.00 0.00 99 1018.6
20260901104542 71 237 0.0 0.0 0.00 0.00 0.00 99 1018.5
20260901103041 71 237 0.0 0.0 0.00 0.00 0.00 99 1018.6
20260901101535 71 237 0.0 0.0 0.00 0.00 0.00 99 1018.4
20260901100048 71 237 0.0 0.0 0.00 0.00 0.00 99 1018.3
20260901094533 71 237 0.0 0.0 0.00 0.00 0.00 99 1018.3
20260901093031 71 237 0.0 0.0 0.00 0.00 0.00 98 1018.3
20260901091534 72 237 0.0 0.0 0.00 0.00 0.00 99 1018.4
20260901090044 72 237 0.0 0.0 0.00 0.00 0.00 98 1018.0
20260901084528 72 237 0.0 0.0 0.00 0.00 0.00 98 1017.9
20260901083027 72 237 0.0 0.0 0.00 0.00 0.00 98 1018.0
20260901081528 72 237 0.0 0.0 0.00 0.00 0.00 98 1018.1
20260901080024 72 237 0.0 0.0 0.00 0.00 0.00 98 1017.9
20260901074523 72 237 0.0 0.0 0.00 0.00 0.00 97 1017.9
20260901073028 72 237 0.0 0.0 0.00 0.00 0.00 97 1017.8
20260901071522 72 237 0.0 0.0 0.00 0.00 0.00 97 1017.8
20260901070019 72 237 0.0 0.0 0.00 0.00 0.00 97 1017.7
20260901064521 73 237 0.0 0.0 0.00 0.00 0.00 97 1017.7
20260901063017 73 237 0.0 0.0 0.00 0.00 0.00 96 1017.9
20260901061516 73 237 0.0 0.0 0.00 0.00 0.00 96 1017.8
20260901060020 73 237 0.0 0.0 0.00 0.00 0.00 96 1017.8
20260901054518 73 237 0.0 0.0 0.00 0.00 0.00 96 1017.8
20260901053007 74 237 0.0 0.0 0.00 0.00 0.00 96 1017.7
20260901051503 74 237 0.0 0.0 0.00 0.00 0.00 95 1017.8
20260901050059 74 237 0.0 0.0 0.00 0.00 0.00 94 1017.9
20260901044600 74 237 0.0 0.0 0.00 0.00 0.00 94 1017.7
20260901043059 74 237 0.0 0.0 0.00 0.00 0.00 94 1017.7
20260901041557 75 237 0.0 0.0 0.00 0.00 0.00 94 1017.5
20260901040057 75 237 0.0 0.0 0.00 0.00 0.00 93 1017.7
20260901034556 75 237 0.0 0.0 0.00 0.00 0.00 93 1017.5
20260901033056 76 237 0.0 0.0 0.00 0.00 0.00 92 1017.8
20260901031554 76 237 0.0 0.0 0.00 0.00 0.00 92 1017.6
20260901030053 76 237 0.0 0.0 0.00 0.00 0.00 91 1017.5
20260901024554 77 237 0.0 0.0 0.00 0.00 0.00 91 1017.5
20260901023055 77 237 0.0 0.0 0.00 0.00 0.00 91 1017.5
20260901021556 78 237 0.0 0.0 0.00 0.00 0.00 90 1017.3
20260901020053 78 237 0.0 0.0 0.00 0.00 0.00 89 1017.2
20260901014551 79 237 0.0 0.0 0.00 0.00 0.00 88 1016.9
20260901013102 80 237 0.0 0.0 0.00 0.00 0.00 87 1016.8
20260901011552 81 237 0.0 0.0 0.00 0.00 0.00 86 1016.6
20260901010054 82 237 0.0 0.0 0.00 0.00 0.00 83 1016.4
20260901004557 83 237 0.0 0.0 0.00 0.00 0.00 81 1016.3
20260901003056 84 237 0.0 0.0 0.00 0.00 0.00 78 1016.4
20260901001548 86 237 0.0 0.0 0.00 0.00 0.00 75 1016.4
20260901000049 87 237 0.0 0.0 0.00 0.00 0.00 72 1016.5
20260831234546 88 237 0.0 0.0 0.00 0.00 0.00 70 1016.6
20260831233044 90 237 0.0 0.0 0.00 0.00 0.00 66 1016.7
20260831231551 91 236 0.0 0.0 0.00 0.00 0.00 64 1016.7
20260831230045 93 237 0.0 0.0 0.00 0.00 0.00 62 1016.8